Date String (YYYY-MM-DD hh:mm:ss) UTC,Instrument flags,absolute air pressure of the measurement (hPa),sample flow rate (lpm),inlet stack bypass flow (lpm),air temperature of the measurement (°C),ambient temperature measured by the external sensor (°C),aerosol sample conditioner tube jacket temperature (°C),OPC LED temperature (°C),internal box temperature (°C),relative humidity of the measurement (%),span deviation,mass concentration of particles derived from Lorenz-Mie calculation of OPC scattering (μg/m³),mass concentration of particles derived from Lorenz-Mie calculation of OPC scattering (μg/m³),mass concentration of particles derived from Lorenz-Mie calculation of OPC scattering (μg/m³)
DateTimeUTC,F1_M11,P_M11,Q1_M11,Q2_M11,T1_M11,T2_M11,T3_M11,T4_M11,T5_M11,U1_M11,ZSPAN_M11,X2_M11,X0_M11,X1_M11
2023-12-23 13:00:00,SystemResetWarning,0821.8,5.00,000.00,023.7,022.6,000.0,032.1,025.1,13.8,0000.0,0005.91,0011.57,0005.28
2023-12-23 13:01:00,SystemResetWarning,0822.0,4.99,000.00,023.7,022.6,000.0,032.1,025.1,14.1,0000.0,0005.99,0011.68,0005.34
2023-12-23 13:02:00,SystemResetWarning,0821.9,4.99,000.00,023.7,022.6,000.0,032.1,025.1,14.1,0000.0,0005.98,0012.31,0005.36
2023-12-23 13:03:00,SystemResetWarning,0822.0,5.00,000.00,023.7,022.6,000.0,032.1,025.1,14.0,0000.0,0005.99,0013.00,0005.36
2023-12-23 13:04:00,SystemResetWarning,0822.0,5.00,000.00,023.7,022.6,000.0,032.1,025.1,14.0,0000.0,0005.97,0012.94,0005.35
2023-12-23 13:05:00,SystemResetWarning,0822.0,5.00,000.00,023.7,022.6,000.0,032.1,025.1,13.9,0000.0,0005.88,0012.71,0005.31
2023-12-23 13:06:00,SystemResetWarning,0822.0,5.00,000.00,023.7,022.6,000.0,032.1,025.1,13.7,0000.0,0005.84,0012.73,0005.27
2023-12-23 13:07:00,SystemResetWarning,0822.0,5.01,000.00,023.7,022.6,000.0,032.1,025.0,13.5,0000.0,0005.77,0012.65,0005.21
2023-12-23 13:08:00,SystemResetWarning,0821.8,5.00,000.00,023.7,022.6,000.0,032.0,025.0,13.5,0000.0,0005.70,0012.12,0005.18
2023-12-23 13:09:00,SystemResetWarning,0821.5,5.00,000.00,023.7,022.6,000.0,032.0,025.1,13.5,0000.0,0005.65,0011.45,0005.15
2023-12-23 13:10:00,SystemResetWarning,0821.4,5.00,000.00,023.7,022.5,000.0,032.0,025.0,13.4,0000.0,0005.60,0011.45,0005.11
2023-12-23 13:11:00,SystemResetWarning,0821.3,5.00,000.00,023.7,022.5,000.0,032.0,025.0,13.4,0000.0,0005.52,0011.37,0005.04
2023-12-23 13:12:00,SystemResetWarning,0821.3,5.00,000.00,023.7,022.5,000.0,032.0,025.0,13.2,0000.0,0005.42,0011.12,0004.98
2023-12-23 13:13:00,SystemResetWarning,0821.3,5.00,000.00,023.7,022.5,000.0,032.0,025.0,13.0,0000.0,0005.34,0010.95,0004.92
2023-12-23 13:14:00,SystemResetWarning,0821.3,5.00,000.00,023.7,022.5,000.0,032.0,025.0,12.9,0000.0,0005.35,0010.21,0004.89
2023-12-23 13:15:00,SystemResetWarning,0821.3,5.00,000.00,023.7,022.5,000.0,032.0,025.0,12.9,0000.0,0005.32,0010.39,0004.88
2023-12-23 13:16:00,SystemResetWarning,0821.2,5.00,000.00,023.7,022.5,000.0,032.0,025.0,12.8,0000.0,0005.35,0011.33,0004.88
2023-12-23 13:17:00,SystemResetWarning,0821.2,4.99,000.00,023.7,022.4,000.0,032.0,025.0,12.8,0000.0,0005.42,0011.40,0004.91
2023-12-23 13:18:00,SystemResetWarning,0821.2,5.00,000.00,023.6,022.4,000.0,032.0,025.0,12.8,0000.0,0005.44,0011.32,0004.94
2023-12-23 13:19:00,SystemResetWarning,0821.1,5.00,000.00,023.6,022.4,000.0,032.0,025.0,12.8,0000.0,0005.43,0010.83,0004.96
2023-12-23 13:20:00,SystemResetWarning,0821.1,5.00,000.00,023.6,022.4,000.0,032.0,025.0,12.8,0000.0,0005.43,0010.48,0004.96
2023-12-23 13:21:00,SystemResetWarning,0821.2,5.01,000.00,023.6,022.4,000.0,032.0,025.0,12.8,0000.0,0005.46,0011.07,0004.97
2023-12-23 13:22:00,SystemResetWarning,0821.2,5.00,000.00,023.6,022.4,000.0,032.0,025.0,12.8,0000.0,0005.48,0011.27,0004.98
2023-12-23 13:23:00,SystemResetWarning,0821.3,5.00,000.00,023.6,022.4,000.0,032.0,025.0,12.8,0000.0,0005.55,0011.90,0005.02
2023-12-23 13:24:00,SystemResetWarning,0821.1,5.00,000.00,023.6,022.4,000.0,032.0,025.0,12.8,0000.0,0005.59,0013.03,0005.05
2023-12-23 13:25:00,SystemResetWarning,0821.1,5.00,000.00,023.6,022.4,000.0,032.0,025.0,12.9,0000.0,0005.61,0013.06,0005.08
2023-12-23 13:26:00,SystemResetWarning,0821.2,5.00,000.00,023.6,022.5,000.0,032.0,025.0,12.9,0000.0,0005.68,0013.15,0005.11
2023-12-23 13:27:00,SystemResetWarning,0821.2,5.00,000.00,023.6,022.5,000.0,032.0,025.0,12.9,0000.0,0005.69,0012.10,0005.12
2023-12-23 13:28:00,SystemResetWarning,0821.2,5.00,000.00,023.6,022.5,000.0,032.0,025.0,12.8,0000.0,0005.67,0012.07,0005.13
2023-12-23 13:29:00,SystemResetWarning,0821.2,5.00,000.00,023.6,022.5,000.0,032.0,025.0,12.7,0000.0,0005.69,0012.58,0005.14
2023-12-23 13:30:00,SystemResetWarning,0821.1,4.99,000.00,023.6,022.5,000.0,031.9,025.0,12.7,0000.0,0005.74,0013.12,0005.15
2023-12-23 13:31:00,SystemResetWarning,0821.1,5.00,000.00,023.6,022.5,000.0,031.9,025.0,12.6,0000.0,0005.78,0013.18,0005.18
2023-12-23 13:32:00,SystemResetWarning,0821.3,4.99,000.00,023.6,022.5,000.0,031.9,025.0,12.6,0000.0,0005.81,0012.83,0005.22
2023-12-23 13:33:00,SystemResetWarning,0821.0,5.00,000.00,023.6,022.5,000.0,031.9,025.0,12.5,0000.0,0005.82,0012.93,0005.24
2023-12-23 13:34:00,SystemResetWarning,0821.0,5.00,000.00,023.6,022.5,000.0,031.9,025.0,12.5,0000.0,0005.79,0012.59,0005.23
2023-12-23 13:35:00,SystemResetWarning,0820.9,5.00,000.00,023.6,022.5,000.0,031.9,025.0,12.5,0000.0,0005.75,0012.84,0005.19
2023-12-23 13:36:00,SystemResetWarning,0821.0,5.00,000.00,023.6,022.5,000.0,031.9,025.0,12.4,0000.0,0005.63,0012.41,0005.09
2023-12-23 13:37:00,SystemResetWarning,0820.9,5.00,000.00,023.6,022.5,000.0,031.9,025.0,12.4,0000.0,0005.43,0011.83,0004.96
2023-12-23 13:38:00,SystemResetWarning,0820.8,5.00,000.00,023.6,022.5,000.0,031.9,025.0,12.4,0000.0,0005.28,0011.53,0004.86
2023-12-23 13:39:00,SystemResetWarning,0820.8,5.00,000.00,023.6,022.5,000.0,031.9,025.0,12.3,0000.0,0005.17,0011.42,0004.76
2023-12-23 13:40:00,SystemResetWarning,0820.8,5.01,000.00,023.6,022.5,000.0,031.9,025.0,12.3,0000.0,0005.02,0011.07,0004.64
2023-12-23 13:41:00,SystemResetWarning,0820.8,5.00,000.00,023.6,022.5,000.0,031.9,025.0,12.3,0000.0,0004.90,0010.45,0004.54
2023-12-23 13:42:00,SystemResetWarning,0820.8,5.00,000.00,023.6,022.5,000.0,031.9,025.0,12.3,0000.0,0004.82,0010.32,0004.45
2023-12-23 13:43:00,SystemResetWarning,0820.8,5.00,000.00,023.6,022.5,000.0,031.9,025.0,12.3,0000.0,0004.72,0010.44,0004.35
2023-12-23 13:44:00,SystemResetWarning,0820.8,4.99,000.00,023.6,022.5,000.0,031.9,025.0,12.3,0000.0,0004.60,0010.47,0004.26
2023-12-23 13:45:00,SystemResetWarning,0820.8,5.00,000.00,023.6,022.5,000.0,031.9,025.0,12.3,0000.0,0004.49,0010.24,0004.16
2023-12-23 13:46:00,SystemResetWarning,0820.8,5.00,000.00,023.6,022.5,000.0,031.9,025.0,12.3,0000.0,0004.39,0008.54,0004.08
2023-12-23 13:47:00,SystemResetWarning,0820.8,5.00,000.00,023.6,022.6,000.0,031.9,025.0,12.3,0000.0,0004.32,0008.57,0004.01
2023-12-23 13:48:00,SystemResetWarning,0820.8,4.99,000.00,023.6,022.6,000.0,031.9,025.0,12.4,0000.0,0004.28,0009.11,0003.96
2023-12-23 13:49:00,SystemResetWarning,0820.8,4.99,000.00,023.6,022.6,000.0,031.9,025.0,12.4,0000.0,0004.22,0009.05,0003.90
2023-12-23 13:50:00,SystemResetWarning,0820.8,4.99,000.00,023.6,022.6,000.0,031.9,025.0,12.5,0000.0,0004.17,0008.99,0003.85
2023-12-23 13:51:00,SystemResetWarning,0820.8,5.00,000.00,023.6,022.6,000.0,031.9,025.0,12.4,0000.0,0004.14,0008.87,0003.81
2023-12-23 13:52:00,SystemResetWarning,0820.8,5.00,000.00,023.6,022.6,000.0,031.9,025.0,12.4,0000.0,0004.09,0008.89,0003.77
2023-12-23 13:53:00,SystemResetWarning,0820.8,5.01,000.00,023.6,022.6,000.0,031.9,025.0,12.4,0000.0,0004.06,0009.39,0003.71
2023-12-23 13:54:00,SystemResetWarning,0820.8,5.00,000.00,023.6,022.6,000.0,031.9,025.0,12.4,0000.0,0003.99,0009.56,0003.68
2023-12-23 13:55:00,SystemResetWarning,0820.8,5.01,000.00,023.6,022.6,000.0,031.9,025.0,12.3,0000.0,0004.00,0009.01,0003.69
2023-12-23 13:56:00,SystemResetWarning,0820.7,5.00,000.00,023.6,022.6,000.0,031.9,025.0,12.3,0000.0,0004.02,0009.04,0003.72
2023-12-23 13:57:00,SystemResetWarning,0820.7,5.00,000.00,023.6,022.6,000.0,031.9,025.0,12.3,0000.0,0004.12,0009.31,0003.81
2023-12-23 13:58:00,SystemResetWarning,0820.7,5.00,000.00,023.6,022.6,000.0,031.9,025.0,12.2,0000.0,0004.22,0009.33,0003.93
2023-12-23 13:59:00,SystemResetWarning,0820.7,5.00,000.00,023.6,022.6,000.0,031.9,025.0,12.2,0000.0,0004.34,0008.93,0004.03
